Wind_Speed
24 24 25 25 25 24 24 24 25 25 26 26 26 24 22 21 22 24 27 30 33 37 39 41 42 42 43 44 45 47 48 50 52 53 53 53 53 52 51 51 50 49 48 46 45 44 43 41 39 37 35 33 31 30 28 26 25 24 24 22 21 20 15 10 9 9 8 7 5 4 3 6 10 7 6 5 9 12 11 16 19 21 22 25 29 28 28 28
26 26 26 27 27 27 27 26 26 26 26 27 28 28 26 24 24 24 26 28 32 36 39 41 43 44 44 45 46 47 48 50 52 54 55 54 54 54 53 53 52 51 49 48 47 47 45 43 40 38 36 34 33 32 31 28 26 25 24 23 22 22 18 13 11 9 9 7 5 4 6 9 9 6 4 4 8 10 10 15 18 19 20 23 27 26 26 27
26 27 27 28 29 30 29 29 28 28 27 27 28 30 30 29 27 26 27 28 30 34 38 41 43 45 46 46 47 48 49 50 51 54 56 55 55 55 54 54 53 52 51 50 49 48 47 44 42 40 38 36 34 33 32 31 28 26 24 23 23 22 19 14 13 10 8 7 7 8 9 10 9 5 1 7 8 6 11 16 17 17 20 24 26 25 25 25
27 28 29 30 31 32 32 32 31 30 29 29 29 30 31 32 31 30 29 29 30 33 36 40 43 46 48 48 48 48 50 51 51 53 56 57 57 56 56 55 55 54 53 52 51 50 48 47 45 42 40 39 37 35 33 33 30 27 25 23 22 22 20 15 13 11 11 10 9 11 13 12 9 5 3 8 6 6 13 13 15 17 21 24 24 24 23 24
30 31 32 32 33 33 34 34 34 33 31 30 30 30 31 33 34 34 33 32 32 33 35 39 42 46 48 50 50 50 51 51 51 53 55 58 58 58 58 57 56 56 55 54 53 51 50 49 47 45 43 41 39 37 35 34 33 30 26 24 23 23 21 17 12 11 15 16 14 14 16 13 11 8 1 4 5 8 11 9 15 18 21 24 23 23 22 23
32 33 34 34 34 35 35 35 35 34 33 32 32 31 32 33 34 36 37 36 35 35 35 38 41 45 48 50 52 52 52 52 52 53 54 57 60 59 59 59 58 58 56 56 54 52 51 50 49 47 46 43 41 39 37 35 34 32 29 25 25 24 23 20 16 14 18 18 17 17 17 13 11 9 4 3 6 8 8 9 15 17 18 21 21 21 21 22
34 34 35 36 37 37 36 36 35 35 34 34 33 33 33 34 35 37 38 39 38 37 37 38 41 44 48 51 53 54 54 53 54 54 55 56 60 61 61 60 59 59 58 57 55 53 52 51 50 49 48 46 44 41 39 37 35 34 32 29 26 25 24 24 22 21 20 19 19 19 17 13 10 9 8 6 5 7 8 11 14 14 15 18 18 19 20 21
36 37 38 39 40 40 39 38 36 35 35 35 36 35 35 36 37 38 39 41 42 41 40 40 41 44 47 51 53 55 55 55 55 55 56 56 59 61 63 62 61 60 60 59 56 54 52 51 51 50 50 48 46 44 41 38 36 35 34 32 29 27 26 27 27 25 23 21 20 20 17 13 10 9 9 6 6 7 10 13 12 10 11 15 16 17 19 20
39 40 41 42 42 42 41 40 39 38 38 38 38 39 39 39 40 41 42 42 44 45 43 42 43 44 47 51 54 55 56 57 57 57 57 57 58 60 63 63 62 61 61 60 58 55 53 52 51 51 51 50 49 46 43 40 37 36 35 33 31 28 26 28 29 28 26 23 21 19 15 12 8 6 7 7 8 8 10 11 8 7 9 13 15 16 18 18
42 43 44 45 45 44 43 43 42 42 42 42 42 42 43 44 44 44 45 45 46 47 48 46 45 46 48 50 53 56 57 59 59 59 59 59 59 59 62 64 64 63 63 62 60 57 54 52 51 51 51 51 51 48 45 42 39 38 35 33 32 30 28 28 28 28 28 25 22 17 13 10 8 8 9 9 8 6 7 6 6 6 7 11 13 15 17 17
45 46 47 48 47 47 46 45 45 46 46 46 46 46 46 47 48 48 48 48 49 50 51 50 48 48 49 51 53 56 58 60 61 61 61 60 60 59 61 64 65 64 64 63 61 58 55 53 53 52 52 52 51 50 47 44 42 40 37 35 34 32 30 28 27 27 27 27 23 18 14 13 12 13 13 10 8 6 4 4 5 5 5 9 12 14 15 16
48 49 49 50 50 50 50 49 49 49 50 50 50 49 49 49 50 51 51 51 52 53 54 54 52 50 51 52 53 55 58 61 62 63 62 62 61 61 61 62 65 66 65 64 62 59 57 55 55 53 52 52 52 52 49 47 44 42 39 38 36 34 32 30 28 26 25 24 22 19 17 17 17 17 16 13 11 9 7 6 5 3 4 7 10 12 14 15
50 52 53 53 54 54 53 53 53 53 53 53 53 53 53 52 53 53 54 54 55 56 56 57 56 54 53 52 54 56 59 62 63 64 64 63 62 62 61 61 64 66 66 65 63 61 60 58 57 55 54 53 53 53 51 49 47 44 41 40 39 37 34 33 31 27 24 22 20 20 18 18 19 18 17 15 13 11 10 8 5 3 3 6 8 10 12 13
53 55 57 57 58 58 57 57 57 57 57 57 56 56 55 55 55 55 56 57 57 58 59 59 59 57 55 54 55 58 60 62 64 64 65 65 64 63 62 61 62 65 66 66 65 63 62 61 60 58 56 55 55 54 53 51 49 46 44 42 41 39 36 35 34 29 26 24 21 20 18 17 20 19 17 17 15 14 12 10 7 4 4 5 5 8 10 11
57 59 61 62 62 61 61 60 60 60 60 60 59 58 58 57 57 57 57 58 59 60 61 62 62 60 58 57 58 58 60 61 62 64 65 65 65 64 63 62 62 64 67 67 66 65 64 64 63 61 58 57 56 55 55 53 51 49 46 45 43 41 38 36 35 30 27 27 26 24 19 17 20 20 19 18 17 16 14 13 10 6 6 6 4 5 7 9
62 64 65 65 66 65 65 64 64 64 64 63 61 60 60 60 59 59 59 59 61 62 63 64 64 63 62 60 59 58 59 60 61 63 65 66 66 65 64 63 63 63 65 68 68 67 66 65 64 62 61 59 57 56 55 55 54 52 49 47 45 43 40 37 36 32 29 30 30 28 22 19 21 21 21 19 18 17 16 14 11 8 7 6 5 1 5 6
66 67 68 69 69 69 69 68 68 67 66 65 63 62 61 61 61 60 60 60 62 64 65 66 66 66 65 63 61 59 58 59 61 63 65 67 68 67 66 65 65 64 65 67 69 69 68 66 65 64 62 60 59 58 57 56 56 55 52 50 46 45 43 38 35 35 35 33 31 31 28 23 22 20 20 21 18 17 16 15 12 9 7 7 6 2 2 3
68 69 70 71 71 71 71 71 70 68 67 65 63 61 61 61 61 61 61 61 62 65 67 68 68 68 67 65 63 60 60 61 62 64 65 68 69 69 68 67 67 65 64 65 68 70 70 68 67 66 64 62 62 60 59 58 57 56 54 52 48 47 47 43 37 35 37 36 33 32 30 27 23 20 21 22 20 17 17 16 13 11 8 7 7 5 2 0
68 70 71 72 73 73 72 71 69 66 64 62 59 58 58 59 60 61 61 62 63 65 68 70 70 70 69 68 65 64 63 63 64 65 67 69 70 70 70 70 69 67 65 65 67 70 71 70 69 68 67 66 65 63 60 58 57 56 55 53 51 49 50 50 45 38 37 39 37 32 30 29 27 23 22 23 22 20 18 17 15 12 8 8 9 7 4 3
69 71 72 73 74 73 71 68 64 60 57 54 52 52 52 54 56 59 61 62 64 66 69 71 72 72 72 70 68 67 66 65 65 66 68 69 70 71 72 71 70 69 67 65 66 70 72 72 71 71 70 69 67 64 61 59 57 57 57 55 53 52 52 54 53 47 41 40 40 36 32 31 30 27 24 23 24 22 19 17 16 13 10 10 11 9 7 6
70 72 73 74 73 71 67 61 56 51 48 46 44 44 45 47 51 55 59 62 64 66 69 72 73 74 73 72 70 70 69 67 66 67 68 69 70 72 73 72 71 70 69 67 67 68 71 73 74 74 72 69 67 65 62 60 58 57 58 57 56 56 55 55 55 53 48 43 40 39 37 34 32 31 28 26 26 23 19 18 18 16 12 14 14 13 11 10
72 73 73 73 71 66 59 53 48 44 41 39 37 37 38 41 45 50 56 60 64 67 69 72 74 75 75 74 73 72 71 70 68 68 68 70 71 72 73 73 73 72 71 69 68 68 70 73 76 75 72 70 69 67 65 62 60 58 58 60 61 59 58 56 55 54 52 48 43 41 41 38 36 33 30 29 26 24 22 22 22 19 16 17 18 16 14 12
73 74 74 72 67 59 51 46 41 37 34 32 32 32 33 36 40 45 51 57 62 66 69 72 74 76 77 77 76 74 73 72 71 70 70 70 71 72 74 74 75 74 72 72 71 70 72 74 76 75 73 72 71 69 67 64 62 60 59 61 63 62 59 57 57 56 54 51 47 45 44 42 39 36 34 31 27 26 26 25 24 22 20 20 18 17 16 14
75 75 74 70 62 52 45 40 35 32 29 27 27 28 30 32 36 40 46 53 60 65 69 72 74 77 78 78 77 76 75 74 73 71 71 71 72 73 74 75 75 75 74 74 73 73 73 74 75 75 74 73 72 71 69 66 64 62 62 63 63 61 59 58 58 58 56 53 50 48 46 45 43 39 36 34 30 28 27 28 28 26 25 23 18 16 16 16
77 76 74 68 56 46 40 35 30 27 24 23 24 25 26 29 32 37 42 49 56 63 68 72 75 77 78 78 78 77 77 76 74 73 72 72 72 73 74 75 76 76 76 75 75 75 74 72 72 75 75 74 73 73 71 68 66 65 64 64 63 61 61 61 60 59 58 56 53 50 48 47 45 41 38 36 33 30 28 28 29 30 28 25 21 19 18 17
79 77 73 65 52 43 37 31 26 23 20 19 20 21 23 25 29 33 38 44 52 60 67 71 74 76 77 78 78 79 78 77 76 74 73 72 72 73 74 75 76 77 77 77 76 76 74 72 72 73 75 75 75 74 73 71 69 67 66 65 63 62 63 63 62 61 60 57 54 51 50 48 46 43 40 38 35 33 30 28 29 31 29 26 24 22 21 20
80 78 74 63 50 41 35 30 24 20 18 17 16 17 19 21 25 29 34 40 48 56 63 69 73 75 76 78 79 79 79 78 77 75 74 73 73 73 74 75 76 77 78 78 78 77 75 74 73 73 74 75 76 75 75 73 72 70 69 67 64 63 64 64 63 62 60 58 56 54 52 50 48 46 43 40 36 32 29 29 30 30 29 27 26 24 23 22
81 78 73 61 48 40 34 29 24 19 16 14 13 13 15 17 21 25 30 36 43 51 59 66 71 74 76 77 78 79 79 79 77 76 75 74 73 73 74 75 76 77 78 78 78 78 77 76 74 73 73 74 76 77 77 76 75 73 71 70 67 63 64 65 64 63 60 59 58 57 55 52 51 50 47 42 37 32 29 29 30 29 30 30 27 25 24 23
82 78 71 58 46 39 33 28 23 18 14 12 11 11 12 14 17 21 26 32 38 45 54 62 68 72 75 77 78 79 80 79 78 76 75 74 74 74 74 75 76 77 78 79 79 79 79 78 75 73 72 73 76 78 78 78 77 76 74 72 69 65 64 65 66 64 62 60 60 59 57 56 54 53 50 45 38 34 31 30 30 29 31 33 30 27 25 23
83 79 71 56 44 37 32 27 22 18 14 11 9 9 10 12 14 18 22 28 34 40 49 57 64 69 73 75 77 79 79 79 78 76 75 75 74 74 74 75 76 77 78 79 80 80 79 77 75 74 73 73 75 78 79 80 79 77 76 74 71 68 65 65 66 65 64 63 62 61 60 59 57 56 54 49 42 38 35 33 32 31 31 33 32 30 27 24
84 79 71 56 43 36 30 25 22 18 15 12 10 8 9 10 13 16 20 24 29 35 43 51 60 66 71 74 76 78 78 79 79 77 76 76 75 74 74 75 76 78 79 80 80 81 80 78 76 76 75 75 75 77 80 81 79 77 76 74 72 70 66 65 65 65 65 65 64 62 61 61 60 58 56 52 47 43 41 37 35 33 32 32 31 30 28 26
84 79 71 56 42 35 29 24 21 18 15 12 10 8 7 8 10 13 17 20 25 30 38 46 54 62 68 72 75 77 78 78 78 78 77 77 76 76 76 76 77 78 80 81 81 82 81 79 78 78 78 77 76 76 79 80 80 78 77 75 73 71 68 65 65 65 66 67 65 64 62 62 62 60 57 54 51 48 46 42 39 36 34 32 31 30 29 28
84 79 70 56 42 34 28 23 20 18 16 13 11 9 7 6 6 8 12 15 20 25 32 39 48 56 63 69 73 76 77 78 79 79 78 77 77 77 77 77 77 79 80 81 82 83 82 81 81 81 80 79 78 77 78 79 80 80 79 77 75 72 69 67 65 65 68 69 67 65 64 63 62 60 59 58 55 53 51 47 44 40 36 33 32 31 30 30
84 78 70 57 43 34 28 23 19 17 15 13 11 9 7 6 4 5 7 10 15 20 26 33 41 49 57 63 69 74 76 78 79 79 79 78 78 78 77 77 78 78 80 81 82 82 83 82 83 83 83 82 80 79 79 80 80 81 81 81 78 75 73 71 69 69 70 71 70 67 65 64 63 62 62 60 58 57 55 52 49 44 40 36 34 34 35 34
83 77 69 57 43 34 28 22 19 16 14 12 11 9 7 5 3 3 4 6 10 14 20 27 35 42 51 58 64 70 74 77 79 79 79 79 79 78 78 77 78 78 80 82 82 82 83 83 84 85 85 84 83 82 81 80 79 81 83 82 80 78 76 75 73 72 72 72 70 68 67 66 65 63 63 62 60 59 58 57 55 50 44 41 38 37 38 38
83 76 69 58 44 33 27 23 19 18 17 15 12 10 9 7 5 3 3 5 7 11 15 21 28 36 45 53 60 66 71 75 77 79 79 79 79 79 79 78 79 79 80 82 83 83 84 85 85 86 86 87 86 84 83 81 79 80 81 81 81 80 79 78 76 75 74 71 69 68 68 68 66 64 63 62 61 60 59 59 59 56 51 46 41 39 39 39
82 76 68 58 44 33 26 22 18 16 16 15 14 11 10 9 8 6 5 6 7 10 14 18 23 30 38 47 55 62 68 73 76 78 79 80 80 80 80 80 80 81 81 82 83 84 84 85 86 87 88 88 87 86 85 83 81 79 79 81 83 83 82 80 78 77 75 72 69 68 69 69 67 65 63 62 62 62 61 60 60 59 57 52 47 42 42 41
81 76 69 59 46 33 26 22 17 14 14 13 12 11 10 9 9 8 8 8 9 11 14 17 21 26 33 41 49 57 64 70 74 77 79 80 81 81 82 81 81 82 82 83 83 84 85 86 88 89 89 89 89 88 86 84 82 80 79 81 83 84 82 81 79 77 76 73 71 69 69 69 68 66 64 63 62 62 62 62 61 61 60 57 53 48 46 45
81 77 70 60 47 34 26 22 19 15 13 13 12 11 11 11 11 10 10 11 12 13 15 18 21 25 30 36 44 52 60 66 71 75 78 79 80 81 82 83 82 83 83 84 84 84 85 87 88 90 90 90 90 89 87 86 84 83 82 81 81 81 82 82 81 79 78 76 74 71 70 70 69 68 66 64 63 63 63 63 63 62 61 60 58 55 52 50
81 77 70 61 49 37 27 23 20 17 14 13 12 12 13 13 14 14 15 15 16 18 19 20 22 25 29 34 40 47 55 62 68 73 76 78 80 81 83 83 84 84 84 84 84 85 86 87 88 89 90 90 90 89 88 87 86 85 84 83 81 80 81 82 81 81 80 78 76 73 72 71 71 71 69 67 66 65 64 64 65 64 63 61 60 59 57 53
81 77 72 63 51 40 29 23 21 18 15 13 13 13 14 15 17 18 19 20 21 22 23 25 25 26 28 33 38 44 51 58 64 69 73 76 78 80 82 83 84 85 85 85 85 85 86 87 88 89 90 90 90 89 89 89 89 88 87 85 83 81 81 81 81 81 80 79 78 75 73 73 74 73 71 70 69 68 67 66 66 66 65 64 63 62 60 56
80 78 73 65 54 43 32 25 21 19 16 14 13 14 15 16 18 20 21 23 24 25 26 27 28 29 30 32 37 42 48 54 60 66 70 74 77 79 81 83 84 85 86 86 86 86 86 87 88 89 90 90 90 90 91 91 91 90 89 88 85 83 82 81 81 81 81 81 79 77 75 75 75 74 73 72 71 71 70 68 67 67 67 66 66 65 63 61
79 78 74 66 57 45 35 26 22 20 17 14 13 14 15 16 17 19 21 23 24 26 27 27 28 30 32 33 35 40 45 50 56 62 67 71 75 79 81 82 84 85 86 87 87 87 86 87 89 89 89 90 92 92 93 93 93 92 91 90 87 84 82 81 81 81 82 83 82 80 78 76 76 76 75 74 73 72 72 70 69 68 68 68 68 67 66 64
78 77 74 67 59 48 37 28 23 21 18 15 13 13 14 15 17 18 20 21 23 25 25 25 26 28 31 34 36 38 43 48 53 58 64 68 73 77 79 81 84 86 87 87 88 88 88 88 89 89 90 91 92 93 94 93 93 93 92 91 88 86 84 83 82 82 82 83 83 82 79 78 78 78 77 76 75 74 73 72 71 70 69 69 68 68 67 66
78 76 74 68 60 50 39 29 24 22 20 17 14 14 14 15 15 16 17 19 21 23 23 22 23 24 28 34 37 38 41 46 51 55 60 65 70 74 77 80 83 85 86 87 87 88 89 89 89 89 91 92 93 93 94 93 93 93 92 91 90 88 87 86 84 83 82 82 83 84 82 80 80 79 79 78 77 76 75 74 73 72 71 70 69 69 68 67
78 76 74 69 61 52 41 31 25 23 21 19 16 15 14 14 14 14 15 17 19 22 22 20 18 20 24 31 37 40 42 45 49 53 57 61 66 70 74 78 81 84 85 86 87 88 89 90 89 89 90 92 92 93 93 93 93 92 92 92 91 90 89 88 86 84 83 83 84 84 84 84 82 81 81 81 79 77 76 75 74 74 73 72 71 70 69 69
78 76 75 70 63 54 44 33 27 23 21 20 18 16 15 14 13 13 14 16 19 21 21 19 15 16 20 26 34 40 43 45 48 51 55 58 62 67 70 74 78 81 84 85 86 87 88 89 90 90 90 91 92 92 92 93 93 93 93 93 92 92 91 90 88 86 85 84 84 85 86 86 85 84 83 83 81 80 78 77 76 75 74 74 73 72 71 70
78 77 75 72 65 56 46 36 28 23 21 21 19 18 17 16 14 13 13 15 19 21 21 19 15 13 15 21 28 36 43 47 49 51 54 57 60 63 67 71 74 78 81 83 85 86 87 88 89 89 89 90 91 92 92 92 93 93 93 93 93 93 92 91 90 89 88 86 86 86 87 87 87 86 85 85 84 82 80 79 78 77 76 75 74 73 71 70
77 77 76 73 67 58 48 38 29 24 22 21 20 19 19 18 16 13 12 14 18 21 22 20 16 12 11 15 22 31 38 45 50 52 54 56 59 61 64 68 71 75 78 81 83 84 85 87 88 88 88 89 90 91 92 92 92 93 94 94 94 93 93 93 93 91 90 89 88 88 88 88 88 87 87 86 86 84 83 82 81 80 78 77 76 74 72 71
77 77 76 74 68 60 50 40 31 26 23 22 21 20 20 19 18 15 12 12 15 20 23 21 17 13 11 10 16 24 32 40 47 52 54 56 58 60 62 65 68 71 74 78 80 82 83 85 86 87 88 88 88 90 91 92 92 92 93 94 94 94 94 94 94 93 92 91 90 90 89 89 89 89 88 88 87 86 85 85 84 82 80 79 78 76 75 73
76 76 76 74 69 61 52 41 32 26 24 22 20 20 20 19 19 18 14 13 13 17 21 22 19 15 12 9 10 17 26 34 41 48 53 55 57 60 62 64 66 68 71 74 77 79 81 82 84 85 87 88 88 88 89 91 92 92 93 94 95 95 95 95 94 94 93 93 92 91 91 90 90 90 90 89 88 88 88 88 86 84 82 80 79 79 78 76
77 76 76 75 70 63 54 43 34 28 24 21 20 20 20 19 20 19 17 15 14 15 19 21 20 16 13 11 9 10 17 27 35 42 49 54 57 59 61 63 65 67 69 71 73 75 78 80 81 83 85 87 87 88 88 89 91 93 94 94 95 95 96 95 95 94 94 94 94 94 94 93 92 92 91 90 90 90 90 89 87 85 84 82 82 81 80 79
Wind_Direction
311 310 309 306 304 301 298 295 293 291 290 289 287 282 275 266 258 252 248 244 239 233 228 226 224 223 223 222 222 221 219 219 218 218 218 218 217 215 213 211 210 209 209 207 206 206 207 206 207 209 210 210 210 207 205 203 200 196 194 192 189 190 194 194 190 180 175 178 171 194 228 274 283 294 291 326 347 330 349 353 351 357 0 14 20 24 27 26
310 309 307 306 303 300 297 294 290 286 285 284 284 282 278 271 263 255 250 246 243 238 232 228 226 224 222 222 222 222 220 219 219 218 218 218 217 217 215 213 211 210 209 208 207 206 206 206 207 208 210 211 211 209 206 204 203 199 196 195 192 193 195 192 183 172 175 178 161 188 253 275 281 284 287 353 338 316 346 357 356 359 4 16 21 26 29 27
309 307 307 305 303 300 297 293 290 286 281 279 278 279 277 274 267 260 252 247 244 241 236 231 227 225 223 221 221 222 221 220 219 219 218 217 217 217 216 214 213 211 210 209 207 207 206 206 207 208 210 211 211 211 208 205 204 200 198 197 196 195 197 196 183 175 182 185 181 203 243 267 278 264 27 1 320 324 5 360 360 6 14 20 23 28 30 28
310 309 307 306 305 302 299 295 291 286 282 277 274 273 273 273 270 264 256 249 244 241 239 235 230 227 225 222 221 221 221 220 220 220 219 218 217 217 216 215 215 213 211 210 208 207 207 207 207 207 209 211 211 212 210 207 204 201 199 198 197 195 197 195 187 198 204 199 203 215 233 252 269 246 52 4 317 345 356 359 12 16 20 22 24 30 32 30
314 312 309 307 305 303 300 297 293 288 283 278 273 270 268 268 268 265 260 253 247 241 239 237 234 229 226 224 222 220 220 220 220 221 220 218 218 217 217 215 215 215 213 212 210 207 207 207 207 207 209 211 211 211 212 209 206 202 200 198 197 197 195 185 182 208 207 200 206 219 231 241 255 250 8 354 291 318 332 6 19 14 20 22 25 32 34 31
316 314 311 308 305 302 299 296 293 289 284 279 273 269 265 262 262 263 261 256 250 244 239 237 235 232 228 225 223 221 219 219 220 220 220 219 218 218 217 215 214 215 214 213 211 209 208 208 208 208 209 211 211 211 212 211 207 204 202 200 199 200 194 178 175 193 195 196 204 215 229 234 250 255 227 243 274 300 320 1 4 3 16 20 26 34 35 32
316 314 313 310 307 303 298 294 291 288 284 280 275 270 265 261 258 257 258 257 253 247 242 238 235 234 231 226 224 223 219 218 219 220 220 220 218 217 218 216 214 215 215 214 213 210 208 208 208 209 209 211 212 211 212 211 209 207 205 203 202 200 194 180 180 195 197 200 208 215 227 232 244 246 208 207 266 285 307 330 339 351 10 19 28 35 35 33
315 315 314 312 309 304 299 293 288 284 281 279 276 271 267 262 257 254 253 255 254 249 244 240 236 233 232 228 225 223 221 218 217 219 220 220 219 218 218 217 215 214 215 215 214 212 210 209 209 210 210 210 212 211 211 211 209 208 207 205 204 200 195 186 187 201 207 209 215 218 225 229 233 226 198 202 249 269 295 306 322 349 10 22 31 36 35 33
315 314 313 311 307 303 299 293 287 282 278 276 275 272 269 264 259 254 251 250 252 250 246 241 237 234 232 230 226 224 223 220 217 217 219 221 220 219 218 217 216 215 215 215 214 213 211 210 210 210 211 211 212 211 211 211 210 210 207 205 206 202 198 193 191 201 209 211 216 218 221 225 224 215 209 226 249 276 297 300 325 2 16 25 34 39 35 32
314 312 310 308 305 302 297 292 287 282 277 274 272 270 268 265 260 255 251 248 248 249 247 242 238 236 232 230 228 225 223 221 218 216 217 220 220 219 218 218 217 215 215 214 213 213 212 211 212 211 211 211 212 212 211 210 210 210 207 204 206 204 201 199 199 203 208 211 215 214 212 211 208 211 219 230 243 273 296 303 341 4 16 27 37 42 38 33
313 310 308 306 304 301 297 292 287 282 277 274 271 268 266 264 261 256 252 247 245 246 246 243 239 236 234 231 228 226 223 222 220 217 215 218 219 219 218 218 217 216 215 215 213 212 212 212 213 212 212 212 212 212 211 209 210 210 207 204 204 204 202 201 203 207 211 215 217 213 206 199 202 211 212 214 226 234 246 282 326 348 10 24 36 44 43 38
312 310 308 306 304 301 297 292 287 282 278 274 271 268 265 262 260 256 252 248 244 243 244 244 240 236 234 232 229 227 225 222 221 218 215 215 218 219 219 217 217 216 215 215 213 212 212 213 214 213 212 212 212 212 211 209 210 210 208 205 203 204 202 199 200 206 209 212 213 211 207 202 204 212 211 208 217 221 221 250 298 329 347 10 33 46 47 44
313 311 309 307 305 301 297 292 288 283 279 275 272 268 265 261 258 255 252 248 244 242 242 243 241 237 234 232 230 228 225 223 221 219 217 215 216 218 219 218 218 217 216 215 214 212 212 213 214 214 213 212 212 212 211 210 209 210 208 206 205 204 202 200 201 203 201 201 204 204 203 205 209 213 214 209 211 217 220 237 270 288 307 346 25 47 51 50
315 313 311 308 305 301 297 293 289 285 281 277 273 270 265 262 258 254 250 247 244 241 241 241 241 238 234 232 231 229 226 224 222 220 218 216 215 216 218 218 218 217 216 216 215 213 212 213 214 214 213 212 212 211 211 210 209 209 209 207 206 204 203 201 202 201 196 193 194 194 196 207 214 214 214 211 211 215 216 226 245 257 274 315 4 49 56 54
317 315 312 309 305 301 297 294 290 286 283 279 275 271 267 262 258 254 250 246 243 240 239 239 239 238 235 232 230 229 227 225 223 221 219 217 215 215 216 218 218 217 217 216 216 214 213 213 214 214 213 213 212 210 210 210 209 209 209 208 206 204 204 203 202 198 194 192 187 185 190 207 215 215 214 214 216 216 215 221 232 243 258 292 333 50 58 56
318 315 312 309 305 302 299 296 292 289 285 281 276 272 267 262 257 253 249 245 241 238 236 236 237 237 235 233 230 229 228 226 224 222 220 218 216 215 215 216 218 217 217 217 216 215 214 214 214 214 215 214 212 211 210 210 209 208 208 209 206 203 203 203 202 199 192 188 185 182 186 201 212 216 218 219 219 219 219 221 228 236 247 278 296 31 63 57
317 314 311 308 306 303 301 298 294 290 286 282 277 271 266 261 256 252 248 244 240 236 233 233 234 234 234 232 230 228 227 226 224 222 220 218 217 215 214 215 216 217 217 216 216 216 215 214 213 214 215 215 214 212 211 210 209 208 208 209 206 203 203 201 199 199 193 185 184 184 185 193 204 212 222 226 223 221 223 224 227 230 236 264 271 252 77 53
316 313 311 309 307 305 302 299 296 291 286 281 275 270 264 258 254 249 245 241 238 234 231 230 230 232 232 231 229 227 226 225 224 222 220 219 217 215 214 214 215 216 217 217 217 217 216 214 213 214 215 215 215 213 212 211 210 209 208 209 207 204 204 202 197 195 191 186 186 188 189 190 195 204 218 226 224 219 223 228 229 226 225 250 257 238 208 5
316 314 312 311 309 307 304 301 297 292 286 280 274 267 261 255 250 245 241 238 235 232 229 228 227 228 229 229 227 225 224 223 223 221 220 219 217 216 214 214 214 215 216 217 217 217 216 214 213 214 214 215 215 213 212 211 210 210 209 209 209 206 205 207 204 198 192 188 188 191 194 192 191 200 213 223 227 225 226 231 231 225 222 241 245 229 218 234
319 317 315 314 312 310 307 303 298 292 286 280 273 266 259 252 246 241 237 233 231 229 227 225 224 225 226 227 226 224 223 222 221 221 219 218 217 216 214 214 213 214 215 216 217 217 216 215 214 214 214 214 214 214 212 211 211 211 209 208 209 208 207 209 209 208 203 195 191 192 196 196 193 198 206 216 228 232 232 235 233 227 221 228 236 231 220 225
323 321 319 317 316 313 310 305 299 293 287 280 273 266 258 250 244 238 233 230 227 225 225 224 222 222 223 224 224 223 223 222 221 220 219 218 217 216 215 214 213 213 214 215 216 217 217 216 215 214 214 214 214 214 213 211 211 212 210 208 208 209 209 210 212 212 211 206 201 198 198 200 199 199 202 210 224 234 239 240 236 230 220 217 227 233 223 220
327 325 323 322 320 317 313 307 300 293 287 280 273 265 257 249 242 235 230 226 224 222 222 222 221 220 220 221 222 222 221 220 220 219 219 218 217 216 215 214 213 213 213 214 215 216 216 216 216 215 213 214 214 214 213 211 212 212 211 208 208 209 209 210 212 214 213 212 210 204 200 202 204 202 202 207 219 231 236 239 238 233 223 214 220 228 224 218
332 329 328 327 325 321 315 308 302 295 288 280 272 264 256 249 242 234 228 224 221 219 219 219 219 219 218 219 220 220 220 220 219 218 218 217 216 215 215 214 213 213 213 214 214 215 216 217 216 215 213 213 214 214 213 212 212 212 212 210 209 209 210 210 212 214 214 213 211 208 203 203 205 205 204 206 213 225 229 233 235 233 226 218 219 224 221 216
336 334 333 332 329 323 317 312 306 299 291 283 273 263 255 247 241 234 228 223 219 217 216 217 217 217 217 217 218 219 219 219 218 217 217 217 216 215 215 214 213 212 212 213 214 215 217 217 216 215 214 213 214 214 214 213 212 212 213 213 210 209 210 211 212 214 215 213 211 209 206 204 206 208 208 208 213 222 227 228 228 228 226 223 221 220 218 216
340 338 338 336 332 326 322 318 312 305 296 285 274 264 255 246 240 234 228 222 218 216 215 215 215 216 217 217 217 218 218 218 218 217 216 216 216 215 215 214 213 212 212 213 214 215 216 217 217 216 215 214 214 214 214 213 213 213 213 214 211 208 210 211 212 213 215 214 212 210 208 207 208 210 211 212 216 222 228 228 224 223 224 223 221 217 216 217
344 342 342 340 335 331 329 326 321 313 302 289 276 265 255 245 238 233 228 223 218 216 214 213 214 215 216 216 216 217 217 218 217 216 216 215 215 215 215 214 213 212 212 213 214 215 216 216 217 217 216 214 214 214 215 214 213 213 214 214 212 209 210 212 212 213 214 214 213 211 211 210 210 211 212 214 218 221 225 229 224 220 219 219 218 217 217 219
347 346 345 342 338 337 336 334 330 321 308 294 279 266 255 244 237 232 227 223 219 216 214 213 212 213 214 215 215 216 217 218 217 216 215 215 215 215 214 214 213 213 212 213 214 215 215 216 216 217 216 215 214 214 214 214 214 214 213 214 213 210 210 212 212 213 214 214 214 213 212 212 211 212 214 214 215 217 221 226 225 222 219 217 216 216 216 220
350 349 347 344 341 341 341 340 336 326 313 298 283 267 254 244 236 230 226 223 220 216 214 212 212 212 212 214 214 215 216 217 217 216 215 215 214 214 214 213 213 213 213 213 214 214 215 215 216 217 217 216 215 215 215 214 214 214 213 214 213 211 210 212 213 213 214 214 215 214 213 212 212 214 215 213 211 214 220 223 223 224 223 218 215 214 215 218
352 351 349 346 344 344 344 343 340 331 318 303 287 269 254 245 237 231 226 223 220 217 215 213 212 211 211 212 213 214 215 216 217 217 216 215 215 214 214 213 213 212 213 213 213 214 215 215 215 216 217 217 216 216 216 215 215 214 214 214 214 212 211 212 213 213 213 214 215 215 214 213 213 214 215 214 212 214 218 217 217 221 219 216 212 211 213 216
353 353 351 348 346 346 345 344 341 336 327 314 299 280 263 254 243 235 230 225 222 219 216 214 212 211 210 211 212 213 214 215 216 216 216 215 215 214 214 214 213 212 212 213 213 214 215 215 215 216 217 218 217 217 217 216 215 215 215 214 214 213 212 212 213 213 213 215 216 216 215 214 214 215 217 218 217 215 216 215 214 215 213 212 211 209 210 214
354 354 353 350 348 347 346 344 342 339 335 328 317 301 280 265 252 242 235 229 224 221 218 215 213 211 210 210 211 212 213 214 215 216 215 215 215 214 214 214 213 212 212 212 213 213 214 214 215 216 217 218 218 218 218 217 216 216 216 216 215 215 214 213 213 213 214 216 216 217 217 216 215 216 217 218 217 214 215 217 217 215 212 212 214 213 212 214
355 355 354 352 350 348 347 346 344 342 342 338 331 323 306 280 258 246 239 233 228 224 220 217 215 212 211 210 210 210 211 213 214 215 215 215 215 214 214 213 213 213 213 212 212 213 213 213 214 215 217 218 218 218 219 218 216 216 216 216 216 216 215 215 214 214 215 216 216 216 217 217 216 216 217 218 216 214 215 218 220 219 216 216 216 214 211 213
355 355 355 353 352 349 348 349 348 347 349 349 346 341 329 309 278 253 241 235 230 225 222 219 217 214 212 211 210 210 210 211 213 214 214 214 215 214 214 213 213 212 213 213 213 213 212 212 213 214 216 217 218 218 219 219 217 216 215 215 215 215 215 215 214 214 216 216 216 216 217 217 217 216 217 217 217 216 217 219 220 220 218 217 216 212 208 210
355 355 355 354 352 350 349 350 352 353 355 358 358 353 340 325 300 269 248 236 230 226 222 220 218 216 214 212 211 210 211 211 212 213 213 214 214 214 214 214 213 213 213 213 214 213 213 212 213 214 215 216 217 218 219 219 217 216 216 215 214 214 214 214 214 214 216 216 215 215 216 217 217 216 217 217 216 217 218 219 220 220 218 218 218 214 208 208
356 356 356 355 352 349 347 347 350 354 357 0 4 2 351 337 319 284 257 243 235 228 223 221 218 216 215 214 212 211 211 211 212 213 214 214 214 214 214 214 214 213 213 213 213 213 213 213 213 214 215 216 217 217 219 219 217 217 217 216 215 214 214 214 214 215 216 216 215 215 216 217 216 217 218 218 217 217 217 219 221 221 219 219 221 220 215 213
356 356 356 355 353 348 345 344 346 350 350 349 349 352 350 346 340 317 275 248 240 233 228 224 220 218 216 215 214 213 211 211 212 213 214 214 213 214 214 214 214 214 214 214 213 213 213 213 214 214 215 216 216 217 218 219 218 218 218 217 216 215 215 215 215 216 217 216 215 216 218 218 217 217 219 219 219 218 218 219 221 222 221 219 221 223 220 217
356 356 356 356 353 348 343 340 341 343 341 336 331 332 335 333 326 318 300 269 248 237 232 229 225 221 218 216 215 214 213 212 212 213 214 214 214 213 214 214 214 214 214 214 213 213 213 213 214 215 215 216 216 217 218 218 218 218 218 218 217 216 215 215 216 217 217 217 216 217 219 219 217 217 219 220 220 219 219 220 221 222 222 220 218 220 220 218
356 356 357 356 353 349 342 336 333 332 332 328 321 318 318 315 310 305 296 282 268 252 240 234 229 225 221 218 217 216 215 214 213 213 214 214 214 214 214 214 214 214 214 214 214 214 214 214 214 215 215 216 216 217 217 218 218 218 218 219 219 218 217 216 216 217 218 217 216 217 219 220 218 218 219 220 221 220 220 220 221 222 223 222 219 218 219 220
356 356 357 356 354 349 342 334 329 326 323 320 317 314 309 304 299 293 288 281 275 267 256 245 236 230 226 222 219 217 217 216 215 214 214 214 215 215 215 215 215 214 214 214 214 214 214 214 215 215 216 216 217 217 217 218 218 218 219 219 220 219 218 218 217 217 217 217 217 217 219 220 219 219 219 220 221 221 220 221 222 223 224 224 223 220 220 221
356 356 357 356 354 349 342 334 328 324 317 314 312 308 300 292 285 281 279 276 274 271 267 260 250 238 231 226 223 220 218 217 217 216 215 215 215 215 215 215 215 215 215 215 215 215 215 215 215 216 217 217 217 217 217 217 218 218 219 219 220 219 219 219 219 219 218 218 217 218 219 221 219 219 220 221 221 221 220 221 222 223 224 225 225 223 222 221
356 356 357 356 354 350 343 335 329 324 316 309 305 298 289 281 275 272 270 270 270 269 267 265 260 251 240 231 227 224 220 218 218 217 217 216 216 216 216 216 216 216 216 215 215 215 216 216 215 216 217 217 218 218 217 218 218 218 219 219 219 219 219 220 220 220 220 219 218 219 220 221 221 219 220 222 223 223 222 222 222 223 224 225 226 226 224 222
356 356 356 356 355 351 344 337 331 326 319 309 300 291 283 278 275 273 271 270 270 269 267 264 260 255 248 238 230 227 224 220 219 218 218 218 217 217 217 217 217 217 217 216 216 216 217 216 216 216 217 217 218 218 218 218 218 219 219 219 219 219 219 220 220 220 220 220 219 219 220 222 222 221 221 222 224 224 224 224 223 224 224 225 226 227 227 225
356 356 356 356 355 351 346 339 333 328 321 311 299 291 285 281 281 280 277 276 275 275 273 269 261 254 249 242 234 228 226 223 221 219 218 219 219 218 218 218 218 218 218 217 217 217 217 217 217 217 217 217 218 218 219 218 218 219 219 219 219 219 219 220 220 220 220 220 220 220 220 222 223 223 222 223 224 225 226 225 225 226 226 227 227 228 228 228
356 357 356 356 354 352 347 340 333 329 324 316 304 296 290 286 284 283 281 280 281 282 281 276 266 254 246 241 236 229 225 224 223 221 219 219 220 220 219 219 219 219 219 218 218 217 218 218 218 218 218 218 218 218 219 219 219 219 219 219 219 219 219 220 220 221 221 221 221 221 221 222 224 224 223 224 224 226 226 226 226 227 227 228 229 229 229 229
356 357 357 356 354 352 348 341 333 330 328 322 312 301 293 288 286 287 286 287 291 293 292 285 273 257 243 236 233 229 224 221 222 222 220 219 220 220 220 220 221 221 220 219 219 218 219 219 219 219 218 219 219 219 219 220 220 220 220 220 220 220 220 220 220 221 221 222 222 222 222 223 224 224 225 225 225 226 227 227 227 228 228 229 230 230 231 231
356 357 357 356 354 352 349 342 334 331 329 325 317 306 299 295 294 295 294 297 305 308 306 299 281 260 243 233 229 227 224 220 219 220 221 220 220 220 221 221 221 222 222 221 220 220 220 220 220 220 220 220 220 220 220 220 221 221 221 221 221 220 220 221 221 221 221 222 223 223 223 223 224 224 225 226 226 227 227 228 228 229 229 230 230 231 232 232
355 357 357 356 354 352 349 343 336 332 329 325 320 313 309 308 304 303 305 310 317 322 321 314 295 266 246 233 227 224 223 221 219 218 219 220 220 220 220 221 222 222 223 223 222 221 221 221 221 221 221 221 221 221 221 221 221 221 222 222 222 221 221 221 221 221 221 222 223 224 225 225 225 224 225 226 227 227 228 228 229 230 230 231 231 232 232 233
355 357 357 356 354 352 349 344 338 332 328 325 322 318 317 317 313 312 318 323 326 330 332 328 313 283 255 237 227 223 221 221 219 217 217 218 219 219 220 221 222 222 223 223 224 223 223 222 222 222 222 222 222 222 222 222 222 222 222 222 222 222 222 221 222 221 221 222 223 224 225 226 226 226 225 226 227 227 228 228 229 230 231 231 232 232 233 233
355 357 357 356 354 352 350 345 339 332 327 325 324 321 320 321 320 320 326 330 333 337 340 339 328 307 276 247 232 224 221 220 220 218 217 217 218 219 219 220 221 222 223 223 224 224 224 224 223 223 223 223 223 223 223 223 223 223 223 223 223 223 222 222 222 222 222 222 223 224 226 227 227 227 227 226 227 228 228 229 229 229 230 231 232 232 233 234
356 357 357 356 354 352 350 346 339 331 327 326 324 322 321 321 322 324 329 332 337 343 346 345 339 325 304 269 240 228 223 221 220 220 218 216 216 217 219 219 220 221 223 223 224 224 225 225 224 224 224 224 225 224 224 224 224 224 224 224 224 224 224 223 223 222 222 222 223 224 226 227 228 229 228 228 228 228 229 229 229 229 230 231 232 233 233 234
356 357 357 356 354 352 350 347 339 331 327 326 323 320 321 323 324 325 329 332 339 346 350 350 346 337 324 302 263 236 226 223 222 222 221 218 216 216 217 219 219 220 222 223 223 224 225 225 225 225 224 224 225 225 225 225 225 225 225 225 225 225 225 224 224 224 223 223 224 224 225 227 228 229 230 230 229 229 230 230 230 230 230 231 232 233 234 234
356 357 356 356 354 351 350 347 340 332 328 325 322 318 319 323 325 325 328 332 337 346 352 353 351 344 335 324 299 257 234 226 223 223 222 221 219 218 217 217 219 220 220 221 222 223 224 224 224 225 225 225 225 225 226 226 226 226 226 226 225 226 225 225 225 224 224 224 224 225 225 226 227 229 230 230 230 230 231 231 232 232 231 231 232 233 234 235
Height
10918 10917 10916 10915 10914 10913 10913 10912 10911 10910 10910 10909 10909 10909 10909 10910 10910 10910 10911 10912 10914 10916 10917 10919 10921 10923 10926 10929 10932 10934 10937 10940 10942 10946 10949 10952 10956 10960 10963 10966 10969 10972 10976 10980 10983 10987 10990 10994 10997 11000 11003 11006 11009 11011 11014 11015 11017 11019 11021 11023 11024 11026 11027 11028 11028 11029 11029 11030 11030 11031 11032 11032 11032 11033 11033 11032 11031 11031 11030 11029 11029 11028 11028 11027 11025 11023 11021 11019
10916 10914 10913 10912 10911 10910 10909 10909 10908 10908 10907 10906 10905 10905 10906 10906 10907 10907 10907 10908 10910 10911 10913 10915 10916 10918 10921 10924 10927 10930 10933 10935 10939 10942 10944 10948 10952 10956 10959 10962 10965 10969 10973 10976 10980 10983 10987 10991 10995 10998 11001 11004 11006 11009 11012 11014 11016 11018 11020 11021 11023 11025 11026 11027 11027 11028 11029 11029 11030 11031 11032 11032 11032 11033 11033 11033 11032 11032 11031 11030 11030 11030 11029 11027 11025 11024 11022 11021
10913 10912 10910 10909 10907 10906 10905 10905 10904 10904 10904 10903 10903 10902 10902 10902 10902 10903 10904 10904 10905 10906 10908 10910 10912 10914 10916 10919 10922 10925 10928 10931 10935 10937 10939 10944 10947 10951 10955 10959 10962 10966 10969 10972 10976 10980 10984 10989 10992 10996 10998 11001 11004 11006 11009 11012 11014 11016 11018 11020 11022 11023 11025 11026 11027 11028 11028 11029 11030 11031 11031 11032 11033 11033 11033 11032 11032 11032 11032 11032 11032 11031 11030 11028 11026 11025 11024 11023
10909 10908 10907 10905 10904 10902 10901 10900 10900 10900 10899 10899 10899 10899 10898 10898 10898 10898 10899 10900 10901 10902 10903 10905 10907 10909 10911 10914 10916 10920 10923 10927 10930 10932 10935 10939 10942 10946 10951 10955 10959 10962 10965 10968 10973 10977 10982 10986 10989 10993 10996 10998 11001 11004 11007 11009 11012 11015 11017 11019 11021 11023 11024 11025 11026 11027 11028 11028 11029 11030 11030 11031 11032 11033 11033 11033 11033 11033 11032 11033 11033 11032 11030 11028 11027 11026 11025 11025
10905 10904 10902 10901 10900 10898 10896 10895 10894 10894 10894 10894 10894 10894 10894 10894 10893 10893 10894 10895 10896 10897 10898 10900 10902 10904 10907 10909 10911 10914 10918 10922 10926 10928 10931 10934 10937 10941 10945 10950 10954 10958 10961 10965 10969 10974 10978 10982 10986 10990 10993 10995 10998 11001 11004 11007 11010 11013 11016 11018 11019 11021 11022 11025 11026 11026 11026 11026 11027 11029 11030 11031 11032 11033 11033 11034 11034 11033 11033 11033 11033 11032 11031 11029 11029 11028 11027 11026
10901 10899 10898 10896 10895 10894 10892 10891 10889 10888 10888 10889 10889 10889 10889 10889 10889 10888 10889 10890 10891 10892 10894 10895 10896 10899 10901 10904 10906 10909 10912 10917 10920 10922 10926 10928 10932 10936 10939 10945 10949 10953 10958 10961 10966 10971 10975 10979 10983 10986 10989 10992 10995 10998 11001 11004 11008 11011 11014 11016 11017 11018 11021 11023 11025 11025 11025 11025 11027 11028 11029 11030 11032 11032 11033 11034 11034 11034 11034 11033 11033 11033 11032 11031 11030 11029 11028 11028
10897 10895 10893 10891 10890 10888 10887 10886 10885 10883 10882 10882 10883 10884 10884 10884 10883 10883 10883 10884 10885 10887 10888 10889 10891 10893 10895 10898 10901 10903 10907 10910 10914 10917 10920 10923 10927 10930 10934 10939 10944 10949 10953 10958 10963 10968 10973 10977 10980 10983 10986 10989 10992 10995 10998 11002 11006 11009 11011 11013 11015 11017 11020 11021 11022 11023 11023 11025 11026 11028 11029 11030 11031 11032 11033 11033 11034 11034 11034 11033 11033 11034 11033 11033 11032 11031 11030 11029
10893 10890 10888 10886 10884 10882 10881 10879 10879 10878 10877 10876 10876 10877 10877 10877 10877 10877 10878 10878 10879 10881 10883 10884 10885 10887 10888 10891 10894 10898 10901 10904 10908 10912 10915 10918 10922 10926 10929 10934 10940 10944 10948 10954 10960 10965 10970 10974 10977 10980 10982 10985 10988 10991 10995 10999 11003 11006 11008 11011 11014 11016 11018 11019 11020 11021 11022 11024 11025 11027 11028 11029 11030 11031 11032 11033 11034 11034 11034 11034 11034 11034 11034 11034 11033 11032 11031 11030
10888 10885 10883 10881 10879 10877 10874 10873 10872 10871 10871 10870 10870 10870 10870 10870 10870 10870 10871 10872 10873 10874 10876 10878 10879 10880 10882 10885 10888 10892 10895 10898 10902 10906 10910 10913 10916 10921 10925 10929 10935 10940 10944 10949 10955 10961 10967 10970 10973 10976 10979 10982 10984 10988 10993 10997 11001 11003 11005 11009 11012 11014 11017 11018 11018 11020 11021 11023 11024 11026 11027 11029 11030 11031 11032 11033 11033 11034 11034 11034 11034 11035 11035 11035 11034 11033 11032 11031
10882 10879 10877 10874 10872 10870 10868 10866 10864 10863 10863 10863 10863 10862 10862 10861 10862 10863 10864 10865 10866 10867 10868 10870 10873 10874 10876 10878 10881 10885 10889 10892 10896 10900 10904 10907 10911 10915 10920 10924 10930 10935 10939 10944 10951 10958 10963 10967 10969 10972 10975 10978 10981 10986 10990 10994 10997 10999 11003 11007 11010 11012 11014 11016 11017 11019 11020 11022 11023 11025 11026 11028 11030 11030 11032 11032 11033 11034 11034 11034 11035 11035 11035 11035 11035 11034 11033 11032
10876 10873 10870 10867 10865 10863 10860 10858 10856 10855 10854 10854 10854 10854 10854 10853 10853 10854 10856 10857 10858 10859 10860 10862 10866 10868 10870 10872 10875 10878 10882 10885 10889 10893 10897 10901 10906 10910 10914 10920 10925 10930 10935 10940 10947 10954 10960 10963 10965 10967 10971 10974 10978 10983 10987 10991 10994 10996 11000 11004 11007 11009 11012 11014 11016 11017 11019 11021 11022 11024 11026 11028 11029 11030 11031 11032 11032 11033 11034 11035 11035 11036 11036 11036 11035 11034 11033 11032
10869 10866 10862 10860 10857 10854 10852 10849 10848 10846 10844 10844 10844 10844 10844 10844 10843 10844 10846 10848 10850 10851 10853 10854 10858 10861 10863 10865 10869 10872 10875 10878 10882 10887 10892 10896 10900 10905 10910 10915 10919 10925 10930 10936 10943 10950 10955 10958 10960 10963 10967 10971 10975 10979 10984 10988 10991 10994 10997 11001 11004 11006 11009 11011 11013 11015 11017 11020 11022 11024 11025 11026 11028 11028 11029 11031 11032 11033 11034 11034 11035 11036 11036 11036 11036 11035 11034 11033
10861 10858 10854 10851 10848 10845 10842 10840 10837 10835 10834 10833 10833 10833 10833 10833 10834 10834 10836 10838 10841 10843 10845 10846 10849 10853 10855 10859 10862 10864 10866 10870 10875 10881 10886 10891 10895 10900 10906 10911 10915 10920 10926 10931 10938 10944 10948 10952 10955 10958 10963 10966 10970 10975 10980 10984 10988 10991 10994 10998 11001 11004 11007 11009 11011 11013 11015 11018 11020 11023 11024 11025 11026 11027 11028 11029 11031 11032 11033 11034 11035 11035 11036 11036 11036 11035 11034 11033
10853 10849 10845 10842 10838 10835 10832 10829 10826 10823 10822 10821 10820 10821 10821 10822 10822 10823 10825 10828 10831 10834 10836 10839 10841 10844 10848 10852 10854 10855 10859 10864 10869 10875 10881 10885 10890 10895 10901 10906 10910 10915 10921 10926 10932 10938 10942 10946 10949 10953 10958 10961 10965 10970 10976 10980 10984 10987 10990 10994 10998 11001 11004 11007 11009 11012 11014 11017 11019 11021 11022 11023 11024 11026 11027 11028 11029 11031 11032 11033 11034 11035 11035 11036 11036 11035 11035 11034
10845 10841 10836 10832 10828 10823 10820 10816 10813 10810 10808 10807 10807 10807 10808 10809 10810 10811 10814 10817 10820 10824 10827 10830 10832 10836 10840 10843 10845 10849 10854 10859 10865 10871 10876 10880 10885 10890 10895 10900 10905 10910 10915 10920 10926 10932 10936 10939 10943 10948 10952 10955 10960 10966 10971 10976 10980 10983 10987 10991 10995 10999 11002 11004 11007 11010 11013 11015 11017 11019 11020 11022 11023 11024 11025 11026 11028 11029 11031 11032 11033 11034 11035 11035 11036 11036 11035 11034
10836 10831 10826 10821 10816 10811 10807 10803 10799 10796 10793 10792 10792 10792 10793 10794 10796 10798 10801 10805 10809 10813 10817 10820 10823 10826 10830 10834 10838 10843 10848 10854 10860 10864 10869 10874 10879 10884 10889 10894 10898 10904 10909 10914 10919 10924 10929 10934 10940 10945 10948 10952 10957 10962 10966 10971 10975 10979 10983 10987 10992 10996 10999 11002 11005 11008 11010 11013 11015 11016 11018 11020 11021 11022 11023 11025 11027 11028 11030 11032 11033 11034 11034 11035 11036 11036 11035 11035
10827 10821 10815 10809 10803 10797 10792 10788 10784 10780 10777 10775 10775 10776 10777 10778 10781 10784 10788 10792 10797 10801 10805 10809 10812 10816 10820 10825 10831 10837 10842 10847 10851 10856 10862 10867 10872 10877 10882 10887 10891 10897 10903 10907 10912 10917 10922 10929 10935 10939 10943 10948 10953 10957 10961 10965 10970 10975 10979 10984 10989 10993 10996 10999 11002 11005 11007 11011 11013 11014 11016 11018 11020 11021 11021 11023 11025 11028 11029 11031 11032 11033 11034 11034 11035 11036 11035 11035
10817 10811 10804 10797 10790 10784 10777 10772 10767 10762 10759 10757 10757 10758 10759 10761 10765 10769 10774 10779 10784 10789 10793 10797 10802 10806 10811 10817 10823 10830 10834 10837 10842 10848 10854 10858 10863 10870 10875 10880 10885 10891 10897 10902 10906 10910 10916 10924 10929 10933 10938 10943 10946 10951 10955 10960 10967 10972 10977 10981 10986 10990 10993 10996 10999 11002 11005 11008 11011 11012 11013 11016 11018 11020 11020 11022 11024 11026 11028 11030 11031 11032 11033 11033 11034 11035 11035 11035
10807 10800 10792 10784 10776 10769 10762 10755 10749 10744 10740 10738 10738 10740 10742 10744 10748 10753 10759 10765 10771 10777 10781 10786 10791 10796 10801 10807 10814 10820 10823 10827 10833 10839 10845 10850 10856 10863 10868 10873 10879 10884 10890 10895 10900 10904 10911 10917 10923 10927 10930 10933 10938 10945 10952 10958 10965 10970 10974 10979 10984 10987 10989 10992 10995 10998 11002 11005 11008 11010 11012 11014 11017 11019 11020 11021 11022 11024 11026 11028 11030 11031 11032 11033 11034 11035 11035 11036
10797 10788 10780 10771 10762 10753 10745 10737 10731 10726 10723 10721 10721 10723 10725 10728 10733 10738 10744 10751 10758 10764 10769 10774 10780 10785 10791 10797 10804 10810 10813 10819 10825 10830 10836 10843 10849 10856 10861 10867 10873 10878 10883 10889 10894 10899 10905 10911 10916 10918 10921 10927 10935 10942 10949 10956 10962 10965 10970 10975 10980 10982 10984 10986 10990 10994 10997 11001 11004 11007 11010 11012 11015 11017 11018 11019 11020 11022 11025 11027 11029 11030 11031 11032 11033 11034 11034 11035
10786 10777 10768 10758 10748 10738 10729 10722 10716 10711 10709 10708 10708 10709 10711 10714 10719 10723 10729 10737 10744 10751 10757 10763 10769 10775 10781 10788 10794 10800 10805 10811 10817 10822 10829 10835 10842 10848 10854 10861 10867 10872 10877 10883 10888 10893 10899 10904 10906 10909 10917 10926 10933 10939 10945 10952 10957 10960 10965 10971 10974 10977 10979 10982 10986 10990 10994 10997 11000 11004 11007 11010 11013 11015 11017 11018 11019 11021 11024 11026 11027 11029 11030 11031 11032 11033 11033 11034
10776 10766 10756 10745 10734 10724 10716 10709 10704 10701 10699 10698 10698 10699 10701 10703 10707 10711 10717 10724 10732 10739 10746 10753 10759 10766 10771 10777 10784 10790 10795 10802 10808 10814 10821 10827 10833 10840 10847 10854 10860 10866 10871 10877 10882 10888 10892 10893 10896 10905 10916 10922 10928 10933 10940 10946 10951 10955 10960 10964 10967 10970 10974 10979 10983 10987 10990 10994 10998 11001 11004 11008 11011 11013 11015 11017 11018 11021 11022 11024 11025 11028 11029 11030 11031 11032 11032 11033
10766 10756 10745 10734 10723 10713 10705 10700 10696 10693 10691 10690 10690 10691 10693 10695 10697 10701 10707 10714 10721 10728 10735 10743 10750 10755 10760 10767 10774 10781 10787 10794 10800 10806 10812 10819 10826 10833 10839 10846 10853 10859 10865 10870 10875 10880 10881 10883 10891 10903 10911 10917 10922 10928 10934 10940 10945 10950 10954 10957 10960 10966 10971 10976 10979 10982 10985 10990 10995 10998 11002 11005 11008 11011 11013 11015 11017 11019 11021 11022 11024 11026 11028 11029 11029 11030 11031 11032
10757 10746 10735 10724 10713 10705 10698 10693 10689 10686 10685 10684 10684 10684 10686 10688 10690 10694 10699 10704 10711 10718 10725 10732 10738 10744 10750 10758 10766 10773 10780 10785 10791 10798 10805 10811 10818 10825 10832 10839 10846 10852 10858 10863 10868 10871 10873 10879 10890 10899 10905 10911 10918 10923 10929 10935 10940 10945 10948 10951 10957 10964 10968 10971 10974 10976 10980 10986 10991 10995 10999 11002 11005 11008 11010 11013 11016 11018 11019 11021 11022 11024 11026 11027 11028 11029 11029 11030
10749 10737 10726 10715 10706 10699 10693 10688 10684 10682 10680 10680 10679 10680 10681 10683 10685 10688 10692 10697 10703 10709 10716 10722 10729 10736 10743 10752 10759 10765 10771 10776 10784 10791 10797 10804 10811 10818 10825 10833 10839 10846 10851 10857 10861 10864 10870 10879 10888 10894 10900 10907 10912 10917 10923 10929 10934 10939 10942 10946 10953 10960 10963 10965 10969 10972 10976 10981 10987 10992 10996 10999 11002 11005 11008 11011 11013 11015 11017 11019 11021 11022 11024 11026 11027 11027 11028 11029
10742 10730 10719 10709 10701 10694 10688 10684 10680 10678 10677 10676 10675 10676 10677 10678 10680 10683 10687 10691 10696 10701 10707 10714 10721 10729 10737 10745 10752 10757 10763 10769 10776 10783 10790 10798 10804 10811 10819 10826 10833 10839 10845 10850 10854 10859 10867 10876 10882 10887 10894 10901 10907 10912 10917 10923 10928 10933 10936 10941 10948 10954 10957 10959 10964 10968 10973 10979 10985 10989 10992 10996 10999 11002 11006 11008 11010 11012 11015 11017 11018 11020 11022 11023 11025 11026 11027 11027
10736 10724 10713 10703 10696 10690 10685 10681 10678 10675 10674 10673 10673 10673 10673 10675 10677 10679 10682 10686 10690 10695 10700 10707 10714 10722 10730 10737 10745 10751 10757 10763 10770 10777 10784 10791 10797 10804 10812 10819 10826 10833 10839 10844 10849 10856 10864 10870 10875 10881 10888 10895 10901 10906 10910 10915 10920 10925 10930 10935 10942 10948 10952 10956 10960 10965 10970 10976 10981 10984 10988 10993 10996 10999 11002 11005 11007 11010 11013 11014 11015 11018 11020 11021 11023 11024 11025 11026
10732 10720 10709 10699 10693 10687 10682 10679 10676 10674 10672 10671 10671 10671 10672 10673 10674 10676 10678 10681 10685 10689 10695 10701 10708 10715 10722 10730 10738 10744 10750 10756 10763 10771 10778 10784 10791 10798 10805 10812 10820 10826 10833 10838 10843 10851 10857 10862 10869 10876 10882 10889 10895 10898 10902 10908 10912 10918 10924 10930 10936 10943 10948 10952 10956 10961 10967 10972 10975 10979 10984 10989 10992 10995 10998 11002 11005 11008 11010 11011 11013 11016 11018 11019 11020 11022 11024 11024
10729 10717 10706 10697 10691 10685 10681 10677 10675 10673 10671 10670 10670 10670 10671 10671 10672 10674 10676 10678 10681 10685 10690 10696 10702 10709 10716 10723 10730 10737 10743 10750 10758 10766 10772 10779 10785 10792 10798 10805 10813 10820 10826 10831 10838 10844 10850 10857 10865 10872 10878 10883 10887 10891 10896 10900 10905 10912 10919 10925 10931 10937 10943 10947 10951 10957 10964 10967 10970 10975 10980 10984 10988 10992 10995 10999 11002 11005 11008 11009 11011 11014 11015 11017 11018 11020 11021 11023
10726 10715 10705 10696 10689 10684 10680 10677 10674 10672 10671 10670 10670 10670 10670 10671 10671 10672 10674 10676 10679 10682 10686 10691 10696 10703 10710 10717 10723 10730 10737 10745 10752 10759 10766 10773 10779 10786 10792 10799 10806 10813 10819 10824 10831 10838 10845 10854 10861 10866 10871 10875 10879 10885 10889 10893 10899 10907 10914 10921 10927 10933 10938 10943 10947 10954 10960 10961 10965 10970 10975 10979 10984 10988 10992 10996 10999 11002 11005 11007 11009 11011 11013 11014 11015 11017 11019 11020
10723 10712 10703 10695 10688 10684 10680 10676 10673 10671 10670 10670 10669 10670 10670 10670 10670 10671 10672 10674 10676 10679 10682 10686 10691 10697 10704 10710 10717 10724 10732 10738 10746 10753 10760 10766 10772 10779 10785 10792 10799 10805 10810 10816 10824 10831 10839 10848 10855 10859 10863 10867 10872 10878 10881 10886 10895 10904 10911 10918 10924 10929 10935 10939 10945 10952 10955 10956 10960 10965 10970 10974 10979 10984 10988 10992 10995 10998 11001 11004 11006 11009 11010 11011 11014 11015 11017 11017
10721 10711 10702 10694 10688 10683 10679 10676 10673 10671 10670 10670 10669 10669 10669 10669 10669 10670 10671 10672 10674 10677 10679 10683 10687 10693 10699 10705 10711 10718 10725 10732 10739 10746 10752 10759 10765 10771 10777 10784 10791 10797 10802 10809 10816 10823 10831 10840 10846 10850 10854 10859 10865 10870 10874 10881 10891 10899 10906 10912 10918 10925 10931 10936 10941 10947 10949 10950 10955 10961 10965 10968 10973 10980 10984 10986 10990 10993 10996 10999 11002 11004 11006 11008 11011 11013 11014 11014
10719 10710 10701 10693 10688 10683 10679 10676 10673 10672 10670 10670 10669 10669 10669 10669 10669 10669 10670 10671 10673 10675 10677 10680 10685 10690 10695 10701 10707 10712 10718 10725 10731 10737 10745 10751 10758 10764 10770 10776 10783 10789 10796 10802 10809 10815 10823 10831 10836 10841 10846 10852 10859 10864 10867 10875 10885 10892 10898 10904 10911 10919 10925 10930 10936 10940 10941 10943 10948 10954 10958 10962 10969 10975 10978 10980 10984 10988 10991 10994 10997 10999 11001 11004 11007 11010 11011 11012
10718 10708 10700 10693 10687 10683 10679 10676 10674 10672 10671 10670 10670 10669 10669 10669 10669 10669 10670 10671 10672 10673 10676 10678 10682 10687 10692 10698 10703 10708 10713 10719 10724 10731 10738 10745 10751 10758 10764 10771 10777 10783 10789 10796 10803 10810 10817 10824 10828 10832 10838 10845 10851 10855 10859 10866 10876 10883 10889 10895 10902 10910 10915 10919 10925 10928 10929 10933 10941 10948 10952 10956 10962 10967 10970 10974 10979 10982 10986 10989 10992 10995 10998 11000 11003 11005 11007 11008
10716 10707 10699 10692 10687 10683 10679 10677 10675 10673 10672 10671 10670 10670 10670 10670 10670 10670 10670 10671 10672 10673 10675 10677 10680 10684 10688 10693 10698 10703 10709 10714 10719 10726 10732 10739 10745 10751 10758 10764 10770 10776 10782 10788 10795 10803 10810 10816 10819 10824 10831 10836 10841 10846 10851 10860 10870 10876 10881 10888 10897 10903 10907 10910 10915 10918 10921 10928 10938 10944 10947 10950 10956 10960 10964 10969 10973 10976 10980 10983 10986 10990 10993 10996 10999 11001 11003 11004
10715 10707 10699 10692 10687 10683 10679 10677 10674 10673 10672 10671 10670 10670 10670 10670 10670 10670 10670 10671 10671 10672 10674 10675 10678 10681 10684 10689 10694 10699 10704 10709 10715 10721 10726 10733 10739 10745 10751 10757 10762 10768 10774 10780 10787 10794 10800 10806 10811 10817 10823 10827 10832 10839 10846 10854 10863 10869 10876 10885 10891 10895 10898 10904 10909 10912 10917 10926 10935 10940 10941 10945 10951 10956 10960 10964 10967 10971 10974 10977 10980 10984 10988 10991 10995 10997 10999 11000
10714 10706 10699 10692 10687 10683 10679 10677 10675 10673 10672 10671 10671 10670 10669 10669 10669 10669 10670 10670 10671 10672 10672 10674 10676 10678 10681 10685 10689 10694 10698 10703 10709 10714 10720 10726 10732 10738 10744 10749 10754 10760 10766 10772 10779 10785 10792 10798 10803 10809 10814 10818 10826 10833 10839 10847 10856 10863 10871 10877 10879 10884 10891 10898 10903 10907 10913 10923 10930 10934 10936 10940 10947 10952 10955 10958 10961 10964 10968 10972 10975 10978 10981 10985 10989 10992 10994 10995
10713 10705 10698 10692 10686 10682 10679 10677 10675 10674 10672 10671 10671 10670 10669 10669 10668 10669 10669 10669 10669 10670 10671 10672 10673 10675 10678 10681 10684 10689 10693 10697 10703 10708 10713 10719 10726 10732 10737 10741 10747 10752 10758 10765 10771 10778 10784 10789 10794 10799 10805 10811 10818 10825 10833 10842 10850 10858 10863 10867 10870 10879 10887 10893 10898 10903 10910 10918 10924 10928 10930 10934 10942 10946 10949 10952 10954 10957 10962 10965 10969 10972 10975 10979 10984 10986 10988 10990
10712 10704 10697 10690 10685 10681 10678 10676 10674 10673 10671 10670 10669 10668 10668 10667 10667 10667 10667 10668 10668 10668 10669 10670 10671 10673 10675 10677 10680 10683 10687 10692 10697 10701 10707 10712 10718 10724 10729 10734 10739 10744 10751 10757 10763 10770 10775 10780 10786 10792 10797 10804 10811 10819 10828 10836 10843 10849 10855 10859 10866 10875 10882 10886 10892 10897 10903 10910 10917 10920 10923 10928 10935 10939 10942 10945 10947 10951 10955 10959 10962 10966 10969 10973 10977 10980 10982 10985
10711 10703 10696 10689 10684 10680 10677 10675 10673 10671 10670 10669 10668 10667 10666 10666 10666 10665 10665 10666 10666 10666 10667 10667 10668 10670 10671 10673 10675 10678 10681 10686 10690 10695 10701 10706 10712 10717 10722 10727 10732 10737 10744 10750 10755 10761 10766 10772 10779 10785 10791 10797 10805 10814 10822 10829 10834 10840 10847 10853 10860 10869 10875 10880 10887 10891 10897 10905 10911 10915 10918 10921 10927 10932 10936 10938 10941 10944 10948 10952 10955 10959 10962 10966 10969 10973 10977 10983
10709 10702 10695 10689 10683 10678 10675 10673 10671 10670 10669 10668 10667 10666 10665 10664 10664 10663 10663 10663 10663 10663 10663 10664 10664 10665 10667 10669 10670 10673 10676 10680 10684 10689 10695 10700 10705 10709 10714 10720 10725 10731 10737 10743 10748 10753 10758 10764 10772 10778 10784 10791 10799 10807 10814 10820 10825 10831 10838 10845 10852 10860 10866 10872 10879 10886 10893 10900 10906 10910 10912 10913 10918 10925 10929 10931 10934 10937 10941 10945 10948 10952 10956 10959 10962 10966 10972 10979
10707 10699 10693 10687 10681 10677 10673 10671 10669 10668 10667 10666 10665 10664 10663 10662 10662 10661 10660 10660 10660 10660 10659 10659 10660 10660 10662 10663 10665 10667 10670 10674 10679 10684 10689 10693 10697 10702 10707 10713 10718 10724 10730 10735 10740 10746 10751 10758 10764 10770 10776 10784 10792 10799 10804 10810 10816 10823 10829 10836 10844 10852 10858 10865 10873 10879 10885 10892 10899 10904 10905 10906 10912 10918 10922 10925 10928 10931 10935 10939 10942 10946 10950 10952 10956 10960 10966 10972
10705 10697 10691 10685 10679 10675 10671 10668 10666 10665 10664 10664 10663 10662 10661 10660 10659 10658 10657 10656 10655 10655 10654 10654 10654 10655 10655 10657 10659 10662 10665 10668 10673 10677 10682 10686 10690 10695 10700 10705 10710 10716 10722 10728 10733 10739 10745 10750 10755 10762 10769 10776 10783 10788 10793 10800 10808 10814 10821 10829 10838 10847 10854 10860 10866 10870 10875 10883 10890 10895 10898 10901 10905 10910 10915 10918 10921 10924 10929 10933 10937 10941 10944 10946 10950 10954 10958 10964
10705 10697 10689 10683 10677 10673 10668 10665 10664 10663 10662 10661 10661 10660 10659 10657 10656 10655 10654 10652 10651 10650 10649 10648 10647 10648 10649 10650 10652 10655 10659 10662 10666 10670 10675 10679 10683 10688 10693 10698 10703 10708 10714 10720 10726 10732 10737 10741 10747 10755 10762 10767 10773 10779 10785 10793 10800 10807 10815 10824 10833 10841 10847 10853 10858 10862 10869 10876 10881 10886 10892 10895 10897 10902 10907 10911 10914 10917 10921 10926 10931 10934 10937 10940 10944 10947 10951 10955
10705 10697 10689 10682 10676 10671 10667 10663 10661 10660 10659 10659 10658 10657 10656 10655 10653 10652 10651 10649 10647 10645 10644 10642 10641 10641 10642 10643 10645 10648 10652 10655 10658 10663 10667 10672 10677 10681 10686 10692 10696 10701 10707 10713 10719 10725 10729 10734 10741 10748 10753 10758 10765 10772 10779 10787 10795 10802 10810 10818 10826 10833 10839 10844 10850 10856 10863 10869 10873 10878 10884 10886 10889 10895 10900 10903 10907 10911 10914 10920 10924 10927 10930 10934 10938 10941 10944 10947
10704 10696 10688 10681 10675 10669 10665 10662 10659 10657 10656 10656 10655 10654 10653 10652 10651 10649 10647 10646 10644 10641 10639 10636 10635 10634 10635 10636 10638 10641 10645 10648 10652 10655 10660 10665 10670 10674 10679 10685 10690 10695 10700 10706 10713 10718 10722 10728 10735 10741 10747 10753 10759 10766 10774 10782 10789 10796 10803 10811 10817 10824 10831 10837 10843 10851 10857 10861 10865 10869 10874 10876 10880 10886 10890 10894 10900 10904 10908 10913 10917 10920 10924 10928 10931 10934 10936 10940
10701 10694 10687 10679 10673 10667 10663 10659 10657 10655 10654 10653 10652 10651 10650 10649 10648 10646 10644 10642 10640 10638 10635 10632 10630 10629 10629 10630 10632 10635 10638 10642 10645 10649 10652 10657 10662 10667 10673 10678 10683 10688 10694 10699 10706 10711 10716 10722 10728 10735 10741 10748 10754 10761 10768 10775 10781 10788 10795 10801 10808 10815 10823 10829 10836 10843 10849 10853 10857 10861 10864 10867 10872 10878 10882 10886 10891 10896 10901 10906 10910 10913 10917 10921 10924 10927 10930 10934
10698 10691 10684 10677 10671 10666 10661 10657 10654 10653 10651 10650 10649 10648 10646 10646 10645 10643 10641 10639 10636 10634 10632 10629 10626 10625 10625 10625 10627 10629 10632 10635 10639 10643 10646 10650 10655 10660 10665 10671 10675 10681 10686 10692 10698 10704 10709 10716 10722 10729 10736 10742 10748 10755 10761 10768 10774 10781 10787 10793 10799 10806 10814 10821 10827 10834 10840 10845 10850 10853 10855 10859 10864 10869 10874 10879 10883 10887 10893 10898 10902 10905 10909 10913 10917 10921 10924 10929
10695 10688 10682 10675 10669 10664 10659 10655 10652 10650 10648 10647 10646 10645 10643 10642 10641 10640 10639 10637 10634 10631 10629 10626 10624 10622 10621 10621 10622 10624 10626 10629 10632 10636 10640 10644 10649 10653 10658 10664 10668 10673 10679 10685 10691 10696 10702 10709 10717 10724 10730 10736 10741 10747 10754 10761 10767 10773 10779 10785 10791 10797 10804 10811 10818 10825 10832 10837 10842 10845 10848 10851 10856 10861 10866 10871 10876 10880 10884 10888 10892 10897 10902 10906 10910 10915 10919 10923
10693 10686 10680 10673 10667 10662 10657 10653 10649 10647 10645 10645 10644 10642 10641 10639 10638 10637 10637 10635 10633 10630 10627 10624 10622 10620 10618 10618 10619 10620 10621 10623 10627 10630 10634 10638 10643 10647 10652 10657 10662 10666 10671 10677 10683 10689 10695 10702 10711 10718 10723 10729 10735 10741 10747 10753 10758 10764 10770 10776 10781 10788 10795 10802 10808 10815 10823 10829 10833 10837 10841 10845 10849 10852 10857 10863 10868 10873 10875 10878 10883 10889 10895 10900 10904 10907 10911 10916
10692 10685 10678 10672 10665 10660 10655 10651 10648 10645 10643 10642 10641 10640 10638 10637 10635 10634 10634 10633 10631 10629 10626 10623 10620 10618 10617 10616 10616 10617 10618 10619 10621 10624 10628 10633 10637 10640 10644 10649 10654 10659 10664 10670 10676 10682 10688 10695 10703 10709 10714 10721 10727 10733 10740 10745 10750 10755 10760 10766 10772 10778 10785 10792 10799 10807 10814 10820 10825 10830 10833 10836 10839 10843 10848 10855 10861 10865 10867 10870 10875 10883 10889 10894 10897 10900 10903 10907
10690 10683 10677 10670 10664 10658 10653 10649 10646 10643 10641 10640 10639 10638 10636 10635 10633 10631 10631 10630 10629 10627 10625 10622 10619 10617 10615 10614 10613 10614 10615 10616 10617 10620 10623 10627 10631 10635 10638 10642 10647 10652 10657 10662 10669 10675 10680 10687 10694 10700 10706 10713 10719 10724 10731 10736 10741 10745 10750 10755 10762 10768 10775 10783 10791 10798 10805 10811 10816 10820 10823 10826 10830 10835 10841 10846 10851 10855 10858 10863 10870 10877 10882 10886 10889 10892 10895 10899